Regional Weather Roundup
Issued by NWS

Home | Current Version | Previous Version | Text Only | Print | Product List | Glossary Off
Versions: 1 2 3 4 5 6 7 8 9 10 11 12 13 14 15 16 17 18 19 20 21 22 23 24 25 26 27 28 29 30 31 32 33 34 35 36 37 38 39 40 41 42 43 44 45 46 47 48 49 50

812
ASUS43 KOAX 121110
RWRNE

WEATHER ROUNDUP FOR NEBRASKA
NATIONAL WEATHER SERVICE OMAHA NE
500 AM CST TUE DEC 12 2017

NOTES: SATELLITE DATA IS BEING USED TO AUGMENT CLOUD COVER ABOVE
       12000 FEET.
       "FAIR" INDICATES FEW OR NO CLOUDS BELOW 12,000 FEET WITH NO
       SIGNIFICANT WEATHER AND/OR OBSTRUCTIONS TO VISIBILITY.


NEZ001>004-019>022-054>056-121200-
NEBRASKA PANHANDLE

CITY           SKY/WX    TMP DP  RH WIND       PRES   REMARKS
SCOTTSBLUFF    CLOUDY    24  15  68 NW7       30.33F WCI  16
ALLIANCE       CLOUDY    13   9  84 W5        30.30F WCI   5
CHADRON        CLOUDY    16  11  80 W9        30.31F WCI   4
GORDON         FAIR      22  18  83 CALM      30.27F
KIMBALL        CLOUDY    27  15  59 W12       30.34F WCI  17
SIDNEY         CLOUDY    21  12  68 W9        30.34F WCI  11
$$

NEZ057>060-069>072-079>082-121200-
SOUTHWEST NEBRASKA

CITY           SKY/WX    TMP DP  RH WIND       PRES   REMARKS
NORTH PLATTE   CLOUDY    19  16  88 NW7       30.35F WCI  10
IMPERIAL       CLOUDY    18  12  77 W10       30.36F WCI   6
LEXINGTON      CLOUDY    23  20  87 NW10      30.35F WCI  12
MCCOOK         CLOUDY    19  16  88 W12       30.37F WCI   7
OGALLALA       CLOUDY    14  10  84 W8        30.35F WCI   3
$$

NEZ005>010-023>029-035>040-094-121200-
NORTH CENTRAL NEBRASKA

CITY           SKY/WX    TMP DP  RH WIND       PRES   REMARKS
VALENTINE      CLOUDY    24  20  84 W7        30.29F WCI  16
AINSWORTH      CLOUDY    26  24  91 W8        30.29F WCI  18
BROKEN BOW     CLOUDY    29  23  78 NW10      30.31F WCI  20
O`NEILL        CLOUDY    29  28  99 W7        30.29F WCI  22
ORD            CLOUDY    34  31  88 W3        30.30F
THEDFORD       CLOUDY    22  20  93 W7        30.31F WCI  13
$$

NEZ041-046>049-061>064-073>077-083>087-121200-
SOUTH CENTRAL NEBRASKA

CITY           SKY/WX    TMP DP  RH WIND       PRES   REMARKS
GRAND ISLAND   CLOUDY    29  26  89 SW3       30.34F
AURORA         CLOUDY    24  22  91 NW5       30.34F WCI  18
HASTINGS       CLOUDY    31  27  85 NW3       30.34F
HEBRON         CLOUDY    23  20  89 W3        30.37F
HOLDREGE       CLOUDY    26  23  88 W8        30.34F WCI  18
KEARNEY        CLOUDY    30  25  81 W6        30.34F WCI  24
YORK           CLOUDY    16  16 100 W7        30.34F WCI   6
$$

NEZ011>018-030>034-042>045-121200-
NORTHEAST NEBRASKA

CITY           SKY/WX    TMP DP  RH WIND       PRES   REMARKS
NORFOLK        CLOUDY    17  15  92 W6        30.30F WCI   9
ALBION         CLOUDY    19  17  92 N3        30.32F
BLAIR          CLOUDY    16  13  87 W7        30.32F WCI   7
COLUMBUS       CLOUDY    19  16  88 W6        30.35F WCI  11
FREMONT        CLOUDY    15  12  87 W8        30.35S WCI   4
TEKAMAH        CLOUDY    16  11  80 NW6       30.35S WCI   7
WAYNE          CLOUDY    15  13  92 W6        30.32F WCI   6
$$

NEZ050>053-065>068-078-088>093-121200-
SOUTHEAST NEBRASKA

CITY           SKY/WX    TMP DP  RH WIND       PRES   REMARKS
LINCOLN        CLOUDY    21  15  78 W6        30.37F WCI  13
OMAHA EPPLEY   CLOUDY    18  11  74 W7        30.35S WCI   9
BEATRICE       CLOUDY    18  15  88 NW5       30.35S WCI  11
FALLS CITY     CLEAR     19  14  81 NW9       30.35S WCI   8
NEBRASKA CITY  CLOUDY    16  15  93 W7        30.34F WCI   7
PLATTSMOUTH    CLOUDY    17  14  86 NW5       30.33F WCI  10
$$

NEZ044-045-051>053-067-121200-
OMAHA AREA

CITY           SKY/WX    TMP DP  RH WIND       PRES   REMARKS
OMAHA EPPLEY   CLOUDY    18  11  74 W7        30.35S WCI   9
BLAIR          CLOUDY    16  13  87 W7        30.32F WCI   7
FREMONT        CLOUDY    15  12  87 W8        30.35S WCI   4
MILLARD        CLOUDY    20  15  81 NW7       30.35S WCI  11
OFFUTT AFB     CLOUDY    16  11  82 NW6       30.33F WCI   7
PLATTSMOUTH    CLOUDY    17  14  86 NW5       30.33F WCI  10
WAHOO          FAIR      19  15  81 NW8       30.35S WCI   9
$$




USA.gov is the U.S. government's official web portal to all federal, state and local government web resources and services.